{"data":{"norad_id":53607,"epoch":"2026-05-24T17:29:32.789472Z","epoch_age_seconds":91401,"freshness":"FRESH","line1":"1 53607U 22104V   26144.72885173  .00000099  00000+0  24329-4 0  9999","line2":"2 53607  53.2170 257.8193 0001361  92.7862 267.3286 15.08837716207167","mean_motion":15.08837716,"eccentricity":0.0001361,"inclination_deg":53.217,"raan_deg":257.8193,"arg_perigee_deg":92.7862,"mean_anomaly_deg":267.3286,"bstar":2.4329e-5,"rev_number":20716,"period_min":95.437699146168,"perigee_km":538.80884577609,"apogee_km":540.69189471827,"semimajor_km":6917.8873702472,"source":"CELESTRAK","updated_at":"2026-05-25T13:38:17.477046Z"}}